Newton, IA

6:31 PM CDT on April 30, 2017 (GMT -0500)
Newton Municipal

Weather History for KTNU - November, 2013

Change the Weather History Date:

Sunday, November 3, 2013

  Actual Average Record
Temperature  
Mean Temperature 44 °F -  
Max Temperature 57 °F 50 °F 77 °F (2008)
Min Temperature 30 °F 34 °F 10 °F (1991)
Degree Days  
Heating Degree Days 22    
Moisture  
Dew Point 32 °F    
Average Humidity 68    
Maximum Humidity 93    
Minimum Humidity 36    
Precipitation  
Precipitation 0.00 in - - ()
Sea Level Pressure  
Sea Level Pressure 30.07 in    
Wind  
Wind Speed 11 mph (SE)    
Max Wind Speed 25 mph    
Max Gust Speed 36 mph    
Visibility 10 miles    
Events      
Averages and records for this station are not official NWS values.
T = Trace of Precipitation, MM = Missing Value Source: NWS Daily Summary

Daily Weather History Graph

Daily Weather History Graph

Search for Another Location

Airport or City:

Trip Planner

Search our weather history database for the weather conditions in past years. The results will help you decide how hot, cold, wet, or windy it might be!

Date:

Astronomy

Nov. 03, 2013 Rise Set
Actual Time 6:46 AM CST 5:03 PM CST
Civil Twilight 6:17 AM CST 5:32 PM CST
Nautical Twilight 5:44 AM CST 6:05 PM CST
Astronomical Twilight 5:12 AM CST 6:38 PM CST
Moon 6:51 AM CST (11/3) 5:18 PM CST (11/3)
Length of Visible Light 11h 15m
Length of Day
10h 16m
New Moon, 0% of the Moon is Illuminated
Nov 3
New Moon
Nov 9
First Quarter
Nov 17
Full
Nov 25
Last Quarter
Dec 2
New

Hourly Weather History & Observations

Time (CST) Temp. Windchill Dew Point Humidity Pressure Visibility Wind Dir Wind Speed Gust Speed Precip Events Conditions
12:15 AM 33.8 °F 28.6 °F 30.2 °F 87% 30.13 in 10.0 mi SE 5.8 mph - N/A   Clear
12:35 AM 33.8 °F 28.6 °F 30.2 °F 87% 30.13 in 10.0 mi SE 5.8 mph - N/A   Clear
12:55 AM 33.8 °F 28.6 °F 30.2 °F 87% 30.14 in 10.0 mi SE 5.8 mph - N/A   Clear
1:15 AM 33.8 °F 27.7 °F 30.2 °F 87% 30.14 in 10.0 mi SSE 6.9 mph - N/A   Clear
1:35 AM 32.0 °F 25.6 °F 30.2 °F 93% 30.15 in 10.0 mi SE 6.9 mph - N/A   Clear
1:55 AM 33.8 °F 30.8 °F 30.2 °F 87% 30.15 in 10.0 mi SE 3.5 mph - N/A   Clear
1:15 AM 32.0 °F 27.5 °F 28.4 °F 87% 30.16 in 10.0 mi SE 4.6 mph - N/A   Clear
1:35 AM 32.0 °F 26.4 °F 28.4 °F 87% 30.15 in 10.0 mi SE 5.8 mph - N/A   Clear
1:55 AM 30.2 °F 24.3 °F 28.4 °F 93% 30.15 in 10.0 mi SE 5.8 mph - N/A   Clear
2:15 AM 32.0 °F 26.4 °F 28.4 °F 87% 30.15 in 10.0 mi SE 5.8 mph - N/A   Clear
2:35 AM 32.0 °F 27.5 °F 28.4 °F 87% 30.15 in 10.0 mi SE 4.6 mph - N/A   Clear
2:55 AM 32.0 °F 27.5 °F 28.4 °F 87% 30.15 in 10.0 mi SE 4.6 mph - N/A   Clear
3:15 AM 32.0 °F - 28.4 °F 87% 30.15 in 10.0 mi Calm Calm - N/A   Clear
3:35 AM 30.2 °F 22.6 °F 28.4 °F 93% 30.15 in 10.0 mi SE 8.1 mph - N/A   Clear
3:55 AM 30.2 °F 23.4 °F 28.4 °F 93% 30.15 in 10.0 mi SE 6.9 mph - N/A   Clear
4:15 AM 30.2 °F 22.6 °F 28.4 °F 93% 30.15 in 10.0 mi SE 8.1 mph - N/A   Clear
4:35 AM 30.2 °F 22.6 °F 28.4 °F 93% 30.15 in 10.0 mi SE 8.1 mph - N/A   Clear
4:55 AM 32.0 °F 24.8 °F 30.2 °F 93% 30.15 in 10.0 mi SE 8.1 mph - N/A   Clear
5:15 AM 32.0 °F 24.8 °F 28.4 °F 87% 30.15 in 10.0 mi SE 8.1 mph - N/A   Clear
5:35 AM 30.2 °F 22.6 °F 28.4 °F 93% 30.15 in 10.0 mi SE 8.1 mph - N/A   Clear
5:55 AM 30.2 °F 22.6 °F 28.4 °F 93% 30.15 in 10.0 mi SE 8.1 mph - N/A   Clear
6:15 AM 32.0 °F 24.8 °F 30.2 °F 93% 30.14 in - SE 8.1 mph - N/A   Unknown
6:35 AM 32.0 °F 24.2 °F 30.2 °F 93% 30.15 in 10.0 mi SSE 9.2 mph - N/A   Clear
6:55 AM 30.2 °F 23.4 °F 28.4 °F 93% 30.15 in 9.0 mi SSE 6.9 mph - N/A   Clear
7:15 AM 32.0 °F 24.8 °F 30.2 °F 93% 30.15 in 9.0 mi SSE 8.1 mph - N/A   Clear
7:35 AM 32.0 °F 25.6 °F 30.2 °F 93% 30.16 in 9.0 mi SSE 6.9 mph - N/A   Clear
7:55 AM 33.8 °F 27.0 °F 32.0 °F 93% 30.16 in 9.0 mi SSE 8.1 mph - N/A   Clear
8:15 AM 35.6 °F 27.5 °F 32.0 °F 87% 30.15 in 9.0 mi SE 11.5 mph - N/A   Clear
8:35 AM 39.2 °F 32.0 °F 33.8 °F 81% 30.15 in 10.0 mi SSE 11.5 mph - N/A   Clear
8:55 AM 41.0 °F 35.2 °F 35.6 °F 81% 30.15 in 10.0 mi SSE 9.2 mph 17.3 mph N/A   Clear
9:15 AM 42.8 °F 36.6 °F 35.6 °F 76% 30.15 in 10.0 mi SSE 11.5 mph 18.4 mph N/A   Clear
9:35 AM 44.6 °F 38.1 °F 35.6 °F 71% 30.14 in 10.0 mi SSE 13.8 mph - N/A   Clear
9:55 AM 46.4 °F 39.8 °F 35.6 °F 66% 30.14 in 10.0 mi SSE 16.1 mph - N/A   Clear
10:15 AM 50.0 °F - 35.6 °F 58% 30.13 in 10.0 mi SSE 17.3 mph - N/A   Clear
10:35 AM 51.8 °F - 35.6 °F 54% 30.12 in 10.0 mi South 18.4 mph 29.9 mph N/A   Clear
10:55 AM 51.8 °F - 35.6 °F 54% 30.11 in 10.0 mi SSE 20.7 mph - N/A   Clear
11:15 AM 53.6 °F - 35.6 °F 51% 30.10 in 10.0 mi South 24.2 mph - N/A   Clear
11:35 AM 53.6 °F - 32.0 °F 44% 30.09 in 10.0 mi South 23.0 mph 32.2 mph N/A   Clear
11:55 AM 55.4 °F - 32.0 °F 41% 30.07 in 10.0 mi SSE 20.7 mph 28.8 mph N/A   Clear
12:15 PM 55.4 °F - 28.4 °F 36% 30.06 in 10.0 mi South 21.9 mph 31.1 mph N/A   Clear
12:35 PM 55.4 °F - 32.0 °F 41% 30.05 in 10.0 mi SSE 24.2 mph - N/A   Clear
12:55 PM 57.2 °F - 30.2 °F 36% 30.03 in 10.0 mi South 21.9 mph 31.1 mph N/A   Clear
1:15 PM 55.4 °F - 30.2 °F 38% 30.03 in 10.0 mi SSE 23.0 mph 29.9 mph N/A   Clear
1:35 PM 55.4 °F - 30.2 °F 38% 30.02 in 10.0 mi SSE 24.2 mph 31.1 mph N/A   Clear
1:55 PM 55.4 °F - 30.2 °F 38% 30.02 in 10.0 mi SSE 21.9 mph 32.2 mph N/A   Clear
2:15 PM 55.4 °F - 30.2 °F 38% 30.01 in 10.0 mi SSE 24.2 mph 34.5 mph N/A   Clear
2:35 PM 55.4 °F - 30.2 °F 38% 30.00 in 10.0 mi SSE 24.2 mph - N/A   Clear
2:55 PM 55.4 °F - 32.0 °F 41% 29.99 in - SSE 19.6 mph 34.5 mph N/A   Clear
3:15 PM 53.6 °F - 32.0 °F 44% 29.98 in 10.0 mi SE 25.3 mph 33.4 mph N/A   Clear
3:35 PM 53.6 °F - 32.0 °F 44% 29.99 in 10.0 mi SSE 23.0 mph 28.8 mph N/A   Clear
3:55 PM 53.6 °F - 32.0 °F 44% 29.97 in 10.0 mi SSE 24.2 mph 33.4 mph N/A   Clear
4:15 PM 53.6 °F - 33.8 °F 47% 29.97 in 10.0 mi SSE 21.9 mph 32.2 mph N/A   Clear
4:35 PM 51.8 °F - 33.8 °F 50% 29.97 in 10.0 mi SE 18.4 mph 35.7 mph N/A   Clear
4:55 PM 51.8 °F - 33.8 °F 50% 29.97 in 10.0 mi SE 19.6 mph 25.3 mph N/A   Clear
5:15 PM 51.8 °F - 33.8 °F 50% 29.98 in 10.0 mi SSE 17.3 mph 26.5 mph N/A   Clear
5:35 PM 50.0 °F - 33.8 °F 54% 29.99 in 10.0 mi SSE 16.1 mph 24.2 mph N/A   Clear
5:55 PM 50.0 °F - 33.8 °F 54% 29.98 in 10.0 mi SE 17.3 mph 23.0 mph N/A   Clear
6:15 PM 50.0 °F - 33.8 °F 54% 29.98 in 10.0 mi SSE 18.4 mph 25.3 mph N/A   Clear
6:35 PM 50.0 °F - 33.8 °F 54% 29.97 in 10.0 mi SE 13.8 mph 23.0 mph N/A   Clear
6:55 PM 48.2 °F - 33.8 °F 58% 29.98 in 10.0 mi SE 17.3 mph - N/A   Clear
7:15 PM 48.2 °F - 33.8 °F 58% 29.97 in 10.0 mi SE 16.1 mph 23.0 mph N/A   Clear
7:35 PM 48.2 °F - 33.8 °F 58% 29.96 in 10.0 mi SE 21.9 mph 28.8 mph N/A   Clear
7:55 PM 48.2 °F - 33.8 °F 58% 29.96 in 10.0 mi SE 23.0 mph - N/A   Clear
8:15 PM 48.2 °F - 33.8 °F 58% 29.96 in 10.0 mi SE 23.0 mph - N/A   Clear
8:35 PM 48.2 °F - 33.8 °F 58% 29.95 in 10.0 mi SE 23.0 mph 31.1 mph N/A   Clear
8:55 PM 48.2 °F - 33.8 °F 58% 29.95 in 10.0 mi SE 23.0 mph 34.5 mph N/A   Clear
9:15 PM 48.2 °F - 33.8 °F 58% 29.96 in 10.0 mi SE 21.9 mph - N/A   Clear
9:35 PM 48.2 °F - 33.8 °F 58% 29.97 in 10.0 mi SE 19.6 mph 26.5 mph N/A   Clear
9:55 PM 46.4 °F 39.8 °F 33.8 °F 62% 29.98 in 10.0 mi SE 16.1 mph - N/A   Clear
10:15 PM 46.4 °F 40.1 °F 33.8 °F 62% 29.98 in 10.0 mi SE 15.0 mph - N/A   Clear
10:35 PM 46.4 °F 40.4 °F 33.8 °F 62% 29.98 in 10.0 mi SE 13.8 mph - N/A   Clear
10:55 PM 46.4 °F 40.1 °F 33.8 °F 62% 29.98 in 10.0 mi SE 15.0 mph 20.7 mph N/A   Clear